{"data":{"norad_id":56065,"epoch":"2026-09-20T03:12:39.936384Z","epoch_age_seconds":49770,"freshness":"FRESH","line1":"1 56065U 23043V   26263.13379556  .00000010  00000+0 -61721-5 0  9995","line2":"2 56065  87.9156 209.9266 0002135  81.6360 278.5013 13.16595298171452","mean_motion":13.16595298,"eccentricity":0.0002135,"inclination_deg":87.9156,"raan_deg":209.9266,"arg_perigee_deg":81.636,"mean_anomaly_deg":278.5013,"bstar":-6.1721e-6,"rev_number":17145,"period_min":109.37301706815,"perigee_km":1196.1352212643,"apogee_km":1199.370126155,"semimajor_km":7575.8896737096,"source":"CELESTRAK","updated_at":"2026-09-20T09:00:44.790522Z"}}